Кызыл-Кия

Киргизия     40°15′30″N   72°07′20″E
В апреле 2022 года жителям России запретили посещать сайт meteo.paraplan.net по решению Генеральной прокуратуры. Аудитория сайта уменьшилась в 10 раз. Владельцы сайта не видят смысла в поддержке погодного сервера в таких условиях. Сайт будет закрыт в октябре.
темп.,
°C
ветер,
м/с
пор.,
м/с
влажн.,
%
обл.,
%
осадки,
мм/ч
давл.,
гПа
погр.,
м
26 сентября, пн
пн2600:00+20юв22250 0.0 101411
03:00+20юв33240 0.0 101413
06:00+18ююв33250 0.0 101614
09:00+23юв11180 0.0 1016152
12:00+27ссз32140 0.0 10151602
15:00+29сз33130 0.0 10132088
18:00+28зсз44140 0.0 1013910
21:00+20ююв11170 0.0 101511
27 сентября, вт
вт2700:00+20ююв33190 0.0 101613
03:00+19юв33200 0.0 101613
06:00+18в33210 0.0 101613
09:00+21св33200 0.0 1017252
12:00+24ссз42200 0.0 10161237
15:00+26зсз32170 0.0 10131652
18:00+25зсз44210 0.0 1013747
21:00+19в22310 0.0 101411
28 сентября, ср
ср2800:00+18в34310 0.0 101438
03:00+16ююв22330 0.0 101411
06:00+14ююз01370 0.0 101411
09:00+19св22270 0.0 1015255
12:00+22ссз32200 0.0 10141042
15:00+25сз221746 0.0 10111318
18:00+24зсз331837 0.0 1011799
21:00+17вюв222627 0.0 101311
29 сентября, чт
чт2900:00+17в33282 0.0 101335
03:00+16вюв22300 0.0 101217
06:00+14юз12330 0.0 101211
09:00+19з112596 0.0 1012183
12:00+23сз211937 0.0 1012918
15:00+25зсз331564 0.0 10091278
18:00+25зсз2315100 0.0 1009244
21:00+18вюв112390 0.0 101111
30 сентября, пт
пт3000:00+18в2222100 0.0 101113
03:00+17вюв2223100 0.0 100911
06:00+15ю2226100 0.0 101113
09:00+20ссз002194 0.0 101295
12:00+24ссз331569 0.0 1011951
15:00+26зсз5713100 0.0 10102087
18:00+25зсз5813100 0.0 1010817
21:00+21ююз2217100 0.0 101255